FW7275 Weather Reports


Display with metric or nautical units.
time (UTC)temp
F
wind
direction
speed
MPH
gust
MPH
rain 1hr
in
rain 24hr
in
rain mn
in
humidity
%
barometer
mb
20260503184031 70 0 0.0 0.0 0.00 0.00 0.00 45
20260503183027 71 0 0.0 0.0 0.00 0.00 0.00 44
20260503182022 72 0 0.0 0.0 0.00 0.00 0.00 43
20260503181021 72 0 0.0 0.0 0.00 0.00 0.00 43
20260503174035 75 0 0.0 0.0 0.00 0.00 0.00 42
20260503173025 77 0 0.0 0.0 0.00 0.00 0.00 38
20260503172033 78 0 0.0 0.0 0.00 0.00 0.00 37
20260503171022 79 0 0.0 0.0 0.00 0.00 0.00 36
20260503071019 70 0 0.0 0.0 0.00 0.00 0.00 47
20260503054022 54 0 0.0 0.0 0.00 0.00 0.00 68
20260503053028 52 0 0.0 0.0 0.00 0.00 0.00 70
20260503052018 50 0 0.0 0.0 0.00 0.00 0.00 73
20260503050034 49 0 0.0 0.0 0.00 0.00 0.00 74
20260503045030 44 0 0.0 0.0 0.00 0.00 0.00 79
20260503044025 44 0 0.0 0.0 0.00 0.00 0.00 79
20260503043030 43 0 0.0 0.0 0.00 0.00 0.00 79
20260503042022 43 0 0.0 0.0 0.00 0.00 0.00 79
20260503041023 43 0 0.0 0.0 0.00 0.00 0.00 80
20260503040036 43 0 0.0 0.0 0.00 0.00 0.00 79
20260503035030 43 0 0.0 0.0 0.00 0.00 0.00 79
20260503033022 43 0 0.0 0.0 0.00 0.00 0.00 79
20260503032028 43 0 0.0 0.0 0.00 0.00 0.00 79
20260503031033 43 0 0.0 0.0 0.00 0.00 0.00 79
20260503030033 44 0 0.0 0.0 0.00 0.00 0.00 79
20260503025018 44 0 0.0 0.0 0.00 0.00 0.00 78
20260503024026 44 0 0.0 0.0 0.00 0.00 0.00 79
20260503023021 44 0 0.0 0.0 0.00 0.00 0.00 78
20260503022022 44 0 0.0 0.0 0.00 0.00 0.00 78
20260503021033 44 0 0.0 0.0 0.00 0.00 0.00 77
20260503020031 45 0 0.0 0.0 0.00 0.00 0.00 77
20260503015026 45 0 0.0 0.0 0.00 0.00 0.00 77
20260503014021 45 0 0.0 0.0 0.00 0.00 0.00 77
20260503013033 45 0 0.0 0.0 0.00 0.00 0.00 76
20260503012024 45 0 0.0 0.0 0.00 0.00 0.00 75
20260503011023 46 0 0.0 0.0 0.00 0.00 0.00 75
20260503005028 46 0 0.0 0.0 0.00 0.00 0.00 74
20260503002019 47 0 0.0 0.0 0.00 0.00 0.00 73
20260503001021 47 0 0.0 0.0 0.00 0.00 0.00 72
20260502235032 48 0 0.0 0.0 0.00 0.00 0.00 71
20260502234023 48 0 0.0 0.0 0.00 0.00 0.00 71
20260502233034 48 0 0.0 0.0 0.00 0.00 0.00 70
20260502232031 48 0 0.0 0.0 0.00 0.00 0.00 71
20260502230041 49 0 0.0 0.0 0.00 0.00 0.00 70
20260502225023 50 0 0.0 0.0 0.00 0.00 0.00 69
20260502224025 50 0 0.0 0.0 0.00 0.00 0.00 68
20260502223029 50 0 0.0 0.0 0.00 0.00 0.00 68
20260502222030 51 0 0.0 0.0 0.00 0.00 0.00 68
20260502221024 51 0 0.0 0.0 0.00 0.00 0.00 67
20260502220041 51 0 0.0 0.0 0.00 0.00 0.00 66
20260502215035 52 0 0.0 0.0 0.00 0.00 0.00 66
20260502214023 52 0 0.0 0.0 0.00 0.00 0.00 65
20260502213029 53 0 0.0 0.0 0.00 0.00 0.00 64
20260502212027 54 0 0.0 0.0 0.00 0.00 0.00 64
20260502211024 54 0 0.0 0.0 0.00 0.00 0.00 63
20260502210032 55 0 0.0 0.0 0.00 0.00 0.00 62
20260502205033 55 0 0.0 0.0 0.00 0.00 0.00 61
20260502204030 56 0 0.0 0.0 0.00 0.00 0.00 59
20260502203031 56 0 0.0 0.0 0.00 0.00 0.00 58
20260502202026 57 0 0.0 0.0 0.00 0.00 0.00 57
20260502201023 59 0 0.0 0.0 0.00 0.00 0.00 55
20260502200045 59 0 0.0 0.0 0.00 0.00 0.00 54
20260502195025 60 0 0.0 0.0 0.00 0.00 0.00 51
20260502194021 61 0 0.0 0.0 0.00 0.00 0.00 51
20260502193023 62 0 0.0 0.0 0.00 0.00 0.00 50
20260502192023 62 0 0.0 0.0 0.00 0.00 0.00 49
20260502191033 63 0 0.0 0.0 0.00 0.00 0.00 48
20260502190039 64 0 0.0 0.0 0.00 0.00 0.00 46
20260502185026 65 0 0.0 0.0 0.00 0.00 0.00 45